EW4883 Weather Reports


Display with metric or nautical units.
time (UTC)temp
F
wind
direction
speed
MPH
gust
MPH
rain 1hr
in
rain 24hr
in
rain mn
in
humidity
%
barometer
mb
20260904155550 84 84 4.0 9.0 0.00 0.00 0.00 59 1016.9
20260904155121 84 82 4.0 9.0 0.00 0.00 0.00 59 1016.7
20260904154600 83 118 4.0 11.0 0.00 0.00 0.00 60 1016.8
20260904154051 83 140 4.0 11.0 0.00 0.00 0.00 61 1016.7
20260904153552 83 118 4.0 9.0 0.00 0.00 0.00 61 1016.8
20260904153101 83 127 3.0 11.0 0.00 0.00 0.00 63 1016.8
20260904152550 82 113 4.0 11.0 0.00 0.00 0.00 62 1016.7
20260904152050 82 86 5.0 10.0 0.00 0.00 0.00 63 1016.7
20260904151607 82 127 3.0 9.0 0.00 0.00 0.00 64 1016.7
20260904151051 82 123 5.0 9.0 0.00 0.00 0.00 64 1016.7
20260904150553 81 96 3.0 9.0 0.00 0.00 0.00 64 1016.6
20260904150104 81 117 6.0 10.0 0.00 0.00 0.00 64 1016.6
20260904145552 81 92 6.0 10.0 0.00 0.00 0.00 64 1016.5
20260904145053 81 144 5.0 10.0 0.00 0.00 0.00 64 1016.5
20260904144608 81 138 5.0 9.0 0.00 0.00 0.00 63 1016.5
20260904144052 81 113 3.0 9.0 0.00 0.00 0.00 65 1016.4
20260904143553 81 124 4.0 8.0 0.00 0.00 0.00 65 1016.5
20260904143057 80 128 3.0 8.0 0.00 0.00 0.00 66 1016.5
20260904142551 80 98 2.0 8.0 0.00 0.00 0.00 67 1016.4
20260904142052 79 94 3.0 9.0 0.00 0.00 0.00 69 1016.3
20260904141602 79 101 4.0 9.0 0.00 0.00 0.00 68 1016.3
20260904141050 79 72 2.0 7.0 0.00 0.00 0.00 68 1016.4
20260904140552 79 81 2.0 6.0 0.00 0.00 0.00 68 1016.3
20260904140104 79 80 2.0 8.0 0.00 0.00 0.00 69 1016.3
20260904135552 78 101 2.0 8.0 0.00 0.00 0.00 70 1016.2
20260904135052 78 117 2.0 6.0 0.00 0.00 0.00 70 1016.2
20260904134603 78 124 2.0 7.0 0.00 0.00 0.00 71 1016.0
20260904134053 77 126 3.0 8.0 0.00 0.00 0.00 71 1016.0
20260904133556 77 123 2.0 8.0 0.00 0.00 0.00 71 1015.9
20260904133057 77 111 2.0 8.0 0.00 0.00 0.00 71 1015.9
20260904132553 77 142 2.0 8.0 0.00 0.00 0.00 72 1015.9
20260904132051 77 136 4.0 9.0 0.00 0.00 0.00 71 1015.7
20260904131606 77 140 4.0 9.0 0.00 0.00 0.00 71 1015.7
20260904131050 77 136 3.0 8.0 0.00 0.00 0.00 71 1015.7
20260904130553 77 136 3.0 7.0 0.00 0.00 0.00 71 1015.6
20260904130103 77 140 3.0 10.0 0.00 0.00 0.00 71 1015.5
20260904125550 77 137 3.0 10.0 0.00 0.00 0.00 71 1015.4
20260904125050 77 136 4.0 8.0 0.00 0.00 0.00 71 1015.3
20260904124609 77 141 3.0 8.0 0.00 0.00 0.00 71 1015.3
20260904124051 77 154 3.0 7.0 0.00 0.00 0.00 71 1015.3
20260904123553 77 142 2.0 9.0 0.00 0.00 0.00 71 1015.1
20260904123102 77 139 3.0 9.0 0.00 0.00 0.00 71 1015.0
20260904122553 77 125 4.0 8.0 0.00 0.00 0.00 71 1015.0
20260904122053 77 146 3.0 8.0 0.00 0.00 0.00 71 1014.9
20260904121603 77 144 2.0 10.0 0.00 0.00 0.00 71 1014.9
20260904121052 77 131 4.0 10.0 0.00 0.00 0.00 71 1014.9
20260904120551 77 140 3.0 7.0 0.00 0.00 0.00 72 1015.0
20260904120112 77 131 3.0 8.0 0.00 0.00 0.00 71 1015.0
20260904115554 77 131 3.0 9.0 0.00 0.00 0.00 71 1014.9
20260904115053 77 157 3.0 9.0 0.00 0.00 0.00 71 1014.9
20260904114608 77 132 2.0 7.0 0.00 0.00 0.00 71 1014.9
20260904114050 77 132 2.0 7.0 0.00 0.00 0.00 71 1014.9
20260904113549 77 132 1.0 7.0 0.00 0.00 0.00 71 1014.8
20260904113102 77 132 2.0 5.0 0.00 0.00 0.00 71 1015.0
20260904112552 77 136 1.0 7.0 0.00 0.00 0.00 71 1014.9
20260904112049 77 137 2.0 7.0 0.00 0.00 0.00 70 1014.7
20260904111601 77 138 3.0 8.0 0.00 0.00 0.00 70 1014.8
20260904111054 77 139 3.0 8.0 0.00 0.00 0.00 70 1014.8
20260904110553 78 133 4.0 8.0 0.00 0.00 0.00 69 1014.9
20260904110108 78 131 4.0 8.0 0.00 0.00 0.00 69 1014.9
20260904105553 78 166 3.0 8.0 0.00 0.00 0.00 69 1014.8
20260904105053 78 0 2.0 7.0 0.00 0.00 0.00 69 1014.8
20260904104606 78 127 3.0 9.0 0.00 0.00 0.00 69 1014.9
20260904104049 78 126 2.0 9.0 0.00 0.00 0.00 68 1014.8
20260904103552 78 123 3.0 7.0 0.00 0.00 0.00 68 1014.7
20260904103104 78 121 3.0 7.0 0.00 0.00 0.00 68 1014.7
20260904102551 78 128 3.0 8.0 0.00 0.00 0.00 68 1014.7
20260904102055 78 133 3.0 8.0 0.00 0.00 0.00 68 1014.7
20260904101609 78 134 3.0 8.0 0.00 0.00 0.00 69 1014.7
20260904101050 78 136 3.0 8.0 0.00 0.00 0.00 69 1014.7
20260904100549 78 130 3.0 8.0 0.00 0.00 0.00 69 1014.6
20260904100057 78 132 3.0 5.0 0.00 0.00 0.00 69 1014.6
20260904095553 78 138 2.0 5.0 0.00 0.00 0.00 69 1014.6
20260904095055 78 137 2.0 5.0 0.00 0.00 0.00 69 1014.6
20260904094604 78 137 2.0 5.0 0.00 0.00 0.00 69 1014.5
20260904094052 78 138 2.0 5.0 0.00 0.00 0.00 69 1014.5
20260904093551 78 136 2.0 7.0 0.00 0.00 0.00 69 1014.5
20260904093103 78 137 3.0 7.0 0.00 0.00 0.00 69 1014.5
20260904092552 78 149 2.0 6.0 0.00 0.00 0.00 69 1014.5
20260904092052 78 150 2.0 5.0 0.00 0.00 0.00 69 1014.4
20260904091601 78 144 2.0 5.0 0.00 0.00 0.00 69 1014.4
20260904091052 78 138 2.0 5.0 0.00 0.00 0.00 69 1014.4
20260904090552 78 136 2.0 5.0 0.00 0.00 0.00 69 1014.5
20260904090056 78 137 3.0 5.0 0.00 0.00 0.00 69 1014.4
20260904085552 78 132 2.0 5.0 0.00 0.00 0.00 69 1014.5
20260904085052 78 130 2.0 4.0 0.00 0.00 0.00 69 1014.5
20260904084603 78 130 1.0 4.0 0.00 0.00 0.00 69 1014.4
20260904084053 78 130 1.0 4.0 0.00 0.00 0.00 69 1014.4
20260904083554 78 130 1.0 4.0 0.00 0.00 0.00 68 1014.5
20260904083111 78 130 2.0 5.0 0.00 0.00 0.00 68 1014.5
20260904082552 78 130 1.0 5.0 0.00 0.00 0.00 68 1014.6
20260904082052 78 130 2.0 5.0 0.00 0.00 0.00 68 1014.6
20260904081602 78 133 1.0 5.0 0.00 0.00 0.00 68 1014.7
20260904081053 79 133 2.0 7.0 0.00 0.00 0.00 67 1014.7
20260904080552 79 133 2.0 7.0 0.00 0.00 0.00 67 1014.6
20260904080104 79 135 3.0 8.0 0.00 0.00 0.00 67 1014.8
20260904075552 79 120 2.0 8.0 0.00 0.00 0.00 67 1014.8
20260904075054 79 130 3.0 8.0 0.00 0.00 0.00 67 1014.6
20260904074611 79 117 2.0 6.0 0.00 0.00 0.00 67 1014.5
20260904074054 79 118 2.0 4.0 0.00 0.00 0.00 67 1014.6
20260904073553 79 118 2.0 4.0 0.00 0.00 0.00 66 1014.6
20260904073107 79 117 2.0 6.0 0.00 0.00 0.00 66 1014.6
20260904072553 79 117 2.0 6.0 0.00 0.00 0.00 66 1014.7
20260904072053 79 116 2.0 7.0 0.00 0.00 0.00 66 1014.7
20260904071601 79 121 2.0 7.0 0.00 0.00 0.00 65 1014.7
20260904071053 79 117 2.0 7.0 0.00 0.00 0.00 65 1014.8
20260904070553 79 111 3.0 7.0 0.00 0.00 0.00 65 1014.9
20260904070056 80 122 1.0 7.0 0.00 0.00 0.00 64 1014.9
20260904065554 80 111 3.0 7.0 0.00 0.00 0.00 64 1014.7
20260904065052 80 109 2.0 6.0 0.00 0.00 0.00 64 1014.8
20260904064628 80 109 2.0 8.0 0.00 0.00 0.00 63 1014.8
20260904064052 80 108 2.0 8.0 0.00 0.00 0.00 63 1014.7
20260904063552 80 103 2.0 8.0 0.00 0.00 0.00 63 1014.6
20260904063126 80 101 3.0 6.0 0.00 0.00 0.00 62 1014.7
20260904062551 80 101 2.0 6.0 0.00 0.00 0.00 62 1014.7
20260904062054 80 104 3.0 6.0 0.00 0.00 0.00 62 1014.7
20260904061601 80 109 2.0 6.0 0.00 0.00 0.00 62 1014.7
20260904061052 80 109 2.0 6.0 0.00 0.00 0.00 61 1014.7
20260904060552 80 109 2.0 4.0 0.00 0.00 0.00 61 1014.7
20260904060109 81 110 0.0 4.0 0.00 0.00 0.00 61 1014.6
20260904055551 81 110 0.0 3.0 0.00 0.00 0.00 61 1014.6
20260904055052 81 110 1.0 7.0 0.00 0.00 0.00 60 1014.5
20260904054604 81 110 0.0 7.0 0.00 0.00 0.00 60 1014.5
20260904054051 81 110 3.0 8.0 0.00 0.00 0.00 60 1014.5
20260904053551 81 109 3.0 8.0 0.00 0.00 0.00 60 1014.5
20260904053103 81 126 3.0 8.0 0.00 0.00 0.00 59 1014.4
20260904052552 82 122 3.0 9.0 0.00 0.00 0.00 59 1014.6
20260904052053 82 108 4.0 9.0 0.00 0.00 0.00 58 1014.6
20260904051600 82 134 2.0 7.0 0.00 0.00 0.00 58 1014.6
20260904051052 82 126 2.0 7.0 0.00 0.00 0.00 58 1014.7
20260904050552 82 125 2.0 8.0 0.00 0.00 0.00 58 1014.7
20260904050105 82 109 3.0 8.0 0.00 0.00 0.00 57 1014.7
20260904045552 82 117 5.0 11.0 0.00 0.00 0.00 57 1014.7
20260904045052 82 88 3.0 11.0 0.00 0.00 0.00 57 1014.8
20260904044601 82 124 3.0 9.0 0.00 0.00 0.00 57 1014.8
20260904044051 82 127 3.0 9.0 0.00 0.00 0.00 57 1014.9
20260904043558 82 109 5.0 10.0 0.00 0.00 0.00 57 1014.9
20260904043106 83 123 3.0 10.0 0.00 0.00 0.00 58 1014.9
20260904042552 83 136 4.0 10.0 0.00 0.00 0.00 58 1014.9
20260904042055 83 126 4.0 9.0 0.00 0.00 0.00 58 1014.9
20260904041609 83 89 3.0 9.0 0.00 0.00 0.00 58 1014.9
20260904041052 83 88 2.0 8.0 0.00 0.00 0.00 58 1014.9
20260904040552 83 82 3.0 9.0 0.00 0.00 0.00 58 1014.8
20260904040104 83 84 3.0 9.0 0.00 0.00 0.00 57 1014.8
20260904035552 83 93 3.0 8.0 0.00 0.00 0.00 57 1014.7
20260904035055 83 126 2.0 9.0 0.00 0.00 0.00 57 1014.7
20260904034600 83 115 4.0 9.0 0.00 0.00 0.00 57 1014.5
20260904034052 84 103 3.0 10.0 0.00 0.00 0.00 57 1014.4
20260904033549 84 103 5.0 10.0 0.00 0.00 0.00 56 1014.3
20260904033058 84 62 3.0 8.0 0.00 0.00 0.00 54 1014.3
20260904032552 84 130 2.0 4.0 0.00 0.00 0.00 52 1014.2
20260904032052 85 0 1.0 5.0 0.00 0.00 0.00 53 1013.9
20260904031605 85 132 1.0 5.0 0.00 0.00 0.00 52 1013.8
20260904031053 85 0 1.0 5.0 0.00 0.00 0.00 52 1013.7
20260904030550 85 0 0.0 2.0 0.00 0.00 0.00 52 1013.6
20260904030103 85 0 0.0 7.0 0.00 0.00 0.00 51 1013.5
20260904025556 85 0 1.0 11.0 0.00 0.00 0.00 51 1013.5
20260904025052 85 154 4.0 11.0 0.00 0.00 0.00 51 1013.4
20260904024608 85 136 5.0 9.0 0.00 0.00 0.00 52 1013.4
20260904024050 85 134 4.0 8.0 0.00 0.00 0.00 52 1013.3
20260904023556 85 129 3.0 8.0 0.00 0.00 0.00 52 1013.2
20260904023105 86 99 2.0 8.0 0.00 0.00 0.00 52 1013.0
20260904022554 86 129 2.0 6.0 0.00 0.00 0.00 51 1013.0
20260904022052 86 163 0.0 5.0 0.00 0.00 0.00 50 1013.1
20260904021602 86 0 1.0 5.0 0.00 0.00 0.00 50 1013.1
20260904021052 86 163 1.0 4.0 0.00 0.00 0.00 50 1013.1
20260904020552 86 163 0.0 8.0 0.00 0.00 0.00 49 1013.0
20260904015552 87 154 3.0 9.0 0.00 0.00 0.00 47 1013.0
20260904015051 87 153 4.0 9.0 0.00 0.00 0.00 46 1012.9
20260904014608 88 137 3.0 8.0 0.00 0.00 0.00 45 1012.8
20260904014053 88 211 1.0 5.0 0.00 0.00 0.00 45 1012.6
20260904013556 88 0 2.0 7.0 0.00 0.00 0.00 45 1012.5
20260904013126 89 0 1.0 8.0 0.00 0.00 0.00 45 1012.7
20260904012554 89 186 3.0 8.0 0.00 0.00 0.00 44 1012.5
20260904012049 89 161 1.0 7.0 0.00 0.00 0.00 44 1012.8
20260904011601 89 188 2.0 7.0 0.00 0.00 0.00 44 1012.6
20260904011053 90 148 1.0 6.0 0.00 0.00 0.00 44 1012.5
20260904010552 90 159 1.0 6.0 0.00 0.00 0.00 43 1012.3
20260904010057 90 0 1.0 9.0 0.00 0.00 0.00 44 1012.2
20260904005552 90 212 2.0 9.0 0.00 0.00 0.00 43 1012.4
20260904005052 90 163 3.0 9.0 0.00 0.00 0.00 43 1012.4
20260904004603 90 172 2.0 9.0 0.00 0.00 0.00 43 1012.6
20260904004053 91 155 3.0 9.0 0.00 0.00 0.00 43 1012.6
20260904003552 91 157 2.0 8.0 0.00 0.00 0.00 43 1012.5
20260904003101 91 170 3.0 10.0 0.00 0.00 0.00 42 1012.5
20260904002549 91 157 4.0 10.0 0.00 0.00 0.00 43 1012.5
20260904002054 92 141 4.0 8.0 0.00 0.00 0.00 42 1012.2
20260904001609 93 158 4.0 8.0 0.00 0.00 0.00 40 1012.2
20260904001052 94 183 1.0 8.0 0.00 0.00 0.00 38 1012.2
20260904000555 93 232 2.0 8.0 0.00 0.00 0.00 38 1012.2
20260904000113 93 242 3.0 8.0 0.00 0.00 0.00 38 1012.4
20260903235553 94 233 3.0 7.0 0.00 0.00 0.00 39 1012.3
20260903235051 94 178 3.0 7.0 0.00 0.00 0.00 39 1012.5
20260903234606 94 0 0.0 6.0 0.00 0.00 0.00 38 1012.5
20260903234052 94 226 3.0 8.0 0.00 0.00 0.00 38 1012.5
20260903233552 94 0 2.0 8.0 0.00 0.00 0.00 38 1012.5
20260903233101 94 0 0.0 8.0 0.00 0.00 0.00 38 1012.6
20260903232555 94 0 3.0 8.0 0.00 0.00 0.00 39 1012.6
20260903232051 94 244 1.0 8.0 0.00 0.00 0.00 39 1012.7
20260903231610 94 248 0.0 7.0 0.00 0.00 0.00 40 1012.6
20260903231054 93 179 1.0 7.0 0.00 0.00 0.00 40 1012.6
20260903230552 93 0 0.0 6.0 0.00 0.00 0.00 41 1012.6
20260903230108 93 16 1.0 6.0 0.00 0.00 0.00 40 1012.6
20260903225552 92 0 0.0 9.0 0.00 0.00 0.00 41 1012.7
20260903225051 93 0 1.0 9.0 0.00 0.00 0.00 40 1012.7
20260903224603 93 350 5.0 9.0 0.00 0.00 0.00 41 1012.7
20260903224051 93 267 2.0 8.0 0.00 0.00 0.00 40 1012.6
20260903223550 93 352 2.0 9.0 0.00 0.00 0.00 40 1012.7
20260903223117 92 352 3.0 9.0 0.00 0.00 0.00 41 1012.7
20260903222552 92 32 1.0 4.0 0.00 0.00 0.00 42 1012.5
20260903222053 91 0 1.0 10.0 0.00 0.00 0.00 43 1012.6
20260903221604 90 249 2.0 10.0 0.00 0.00 0.00 43 1012.8
20260903221051 90 255 5.0 10.0 0.00 0.00 0.00 42 1013.0
20260903220552 91 254 4.0 9.0 0.00 0.00 0.00 41 1013.1
20260903215555 92 292 1.0 5.0 0.00 0.00 0.00 42 1013.1
20260903215053 91 292 1.0 7.0 0.00 0.00 0.00 43 1013.1
20260903214600 91 0 2.0 7.0 0.00 0.00 0.00 44 1013.2
20260903214051 90 298 3.0 9.0 0.00 0.00 0.00 44 1013.3
20260903213554 91 0 2.0 9.0 0.00 0.00 0.00 43 1013.3
20260903213113 91 27 2.0 5.0 0.00 0.00 0.00 43 1013.3
20260903212555 91 5 0.0 5.0 0.00 0.00 0.00 44 1013.4
20260903212053 90 0 2.0 6.0 0.00 0.00 0.00 44 1013.5
20260903211602 90 352 3.0 9.0 0.00 0.00 0.00 44 1013.5
20260903211055 90 55 3.0 9.0 0.00 0.00 0.00 45 1013.5
20260903210552 90 352 3.0 9.0 0.00 0.00 0.00 45 1013.7
20260903205551 88 327 4.0 9.0 0.00 0.00 0.00 47 1013.8
20260903205051 88 261 2.0 9.0 0.00 0.00 0.00 47 1013.9
20260903204600 89 269 3.0 9.0 0.00 0.00 0.00 46 1014.0
20260903204051 89 246 4.0 9.0 0.00 0.00 0.00 46 1014.1
20260903203554 89 238 3.0 7.0 0.00 0.00 0.00 45 1014.0
20260903203058 89 0 0.0 6.0 0.00 0.00 0.00 45 1014.1
20260903202553 89 0 1.0 6.0 0.00 0.00 0.00 45 1014.2
20260903202053 90 17 1.0 7.0 0.00 0.00 0.00 44 1014.3
20260903201606 90 0 3.0 7.0 0.00 0.00 0.00 44 1014.4
20260903201055 90 209 2.0 5.0 0.00 0.00 0.00 45 1014.4
20260903200552 89 0 0.0 6.0 0.00 0.00 0.00 45 1014.5
20260903200104 89 0 0.0 6.0 0.00 0.00 0.00 45 1014.6
20260903195551 89 254 2.0 6.0 0.00 0.00 0.00 44 1014.6
20260903195051 90 52 1.0 6.0 0.00 0.00 0.00 43 1014.8
20260903194601 90 141 1.0 5.0 0.00 0.00 0.00 44 1014.9
20260903194051 90 117 0.0 7.0 0.00 0.00 0.00 45 1015.0
20260903193551 89 115 2.0 7.0 0.00 0.00 0.00 46 1015.0
20260903193057 89 0 4.0 10.0 0.00 0.00 0.00 46 1015.1
20260903192556 89 137 3.0 10.0 0.00 0.00 0.00 45 1015.2
20260903192052 89 98 4.0 9.0 0.00 0.00 0.00 45 1015.3
20260903191602 89 66 1.0 9.0 0.00 0.00 0.00 46 1015.3
20260903191056 89 116 3.0 9.0 0.00 0.00 0.00 46 1015.5
20260903190552 89 170 2.0 7.0 0.00 0.00 0.00 47 1015.5
20260903190106 88 340 2.0 7.0 0.00 0.00 0.00 47 1015.7
20260903185555 88 277 2.0 7.0 0.00 0.00 0.00 47 1015.7
20260903185053 88 94 1.0 6.0 0.00 0.00 0.00 47 1015.8
20260903184608 88 0 1.0 6.0 0.00 0.00 0.00 47 1016.0
20260903184053 88 0 0.0 6.0 0.00 0.00 0.00 47 1016.0
20260903183556 88 92 1.0 6.0 0.00 0.00 0.00 48 1016.1
20260903183106 88 91 1.0 7.0 0.00 0.00 0.00 48 1016.2
20260903182552 87 88 3.0 7.0 0.00 0.00 0.00 49 1016.3
20260903182054 87 126 2.0 7.0 0.00 0.00 0.00 49 1016.3
20260903181601 87 211 1.0 7.0 0.00 0.00 0.00 49 1016.5
20260903181053 87 164 2.0 7.0 0.00 0.00 0.00 48 1016.6
20260903180553 86 165 2.0 7.0 0.00 0.00 0.00 50 1016.7
20260903180113 86 90 1.0 6.0 0.00 0.00 0.00 52 1016.7
20260903175552 85 100 1.0 6.0 0.00 0.00 0.00 53 1016.8
20260903175052 85 100 1.0 6.0 0.00 0.00 0.00 53 1016.9
20260903174603 85 0 2.0 4.0 0.00 0.00 0.00 54 1016.9
20260903174051 84 73 1.0 6.0 0.00 0.00 0.00 56 1017.0
20260903173551 84 67 2.0 6.0 0.00 0.00 0.00 55 1016.9
20260903173108 84 117 1.0 5.0 0.00 0.00 0.00 56 1016.9
20260903172551 83 132 1.0 4.0 0.00 0.00 0.00 57 1016.9
20260903172051 82 134 1.0 7.0 0.00 0.00 0.00 58 1017.0
20260903171558 82 89 2.0 7.0 0.00 0.00 0.00 58 1017.1
20260903171053 82 129 1.0 5.0 0.00 0.00 0.00 58 1017.0
20260903170552 82 0 2.0 5.0 0.00 0.00 0.00 58 1016.9
20260903170109 82 129 0.0 4.0 0.00 0.00 0.00 59 1016.9
20260903165551 82 130 0.0 4.0 0.00 0.00 0.00 59 1016.9
20260903165052 82 0 2.0 6.0 0.00 0.00 0.00 59 1017.0
20260903164604 82 119 3.0 6.0 0.00 0.00 0.00 58 1016.9
20260903164052 82 123 1.0 4.0 0.00 0.00 0.00 57 1016.8
20260903163554 82 123 0.0 4.0 0.00 0.00 0.00 57 1016.9
20260903163135 82 121 2.0 4.0 0.00 0.00 0.00 58 1017.0
20260903162557 81 0 0.0 5.0 0.00 0.00 0.00 58 1017.0
20260903162053 81 0 1.0 5.0 0.00 0.00 0.00 57 1017.0
20260903161558 81 149 1.0 5.0 0.00 0.00 0.00 57 1017.0
20260903161053 82 161 1.0 4.0 0.00 0.00 0.00 57 1017.0
20260903160553 82 165 1.0 4.0 0.00 0.00 0.00 56 1017.0